Back to catalog

STARLINK-31586

AliveCommunicationsVLEO
NORAD 59205·PAYLOAD·🇺🇸 United States

Launched Mar 11, 2024 from Vandenberg Space Force Base

Loading…

Next Passes (next 24 hours)

TLE

FreshSource: CelesTrak SupGP

Epoch: Sep 15, 2026, 01:48 UTC

1 59205C 24046E   26258.07548611  .00055315  00000+0  16346-2 0  2580
2 59205  53.1584 354.7216 0001024  87.1095  93.4040 15.34356463    15

Track STARLINK-31586 in real time with AllMySat

Download on the App Store